Grant County, OR

3:11 PM PST on December 11, 2017 (GMT -0800)
Grant County Regional

Weather History for KGCD - July, 2013

Change the Weather History Date:

Friday, July 19, 2013

  Actual Average (KBNO) Record (KBNO)
Temperature  
Mean Temperature 78 °F -  
Max Temperature 97 °F 86 °F 100 °F (1960)
Min Temperature 59 °F 46 °F 33 °F (1996)
Cooling Degree Days 13    
Growing Degree Days 28 (Base 50)    
Moisture  
Dew Point 34 °F    
Average Humidity 23    
Maximum Humidity 43    
Minimum Humidity 10    
Precipitation  
Precipitation 0.00 in - - ()
Sea Level Pressure  
Sea Level Pressure 30.09 in    
Wind  
Wind Speed 6 mph (NNW)    
Max Wind Speed 15 mph    
Max Gust Speed 22 mph    
Visibility 10 miles    
Events      
Averages and records for this station are not official NWS values.
T = Trace of Precipitation, MM = Missing Value Source: NWS Daily Summary

Daily Weather History Graph

Daily Weather History Graph

Search for Another Location

Airport or City:

Trip Planner

Search our weather history database for the weather conditions in past years. The results will help you decide how hot, cold, wet, or windy it might be!

Date:

Astronomy

Jul. 19, 2013 Rise Set
Actual Time 5:29 AM PDT 8:34 PM PDT
Civil Twilight 4:54 AM PDT 9:08 PM PDT
Nautical Twilight 4:10 AM PDT 9:53 PM PDT
Astronomical Twilight 3:16 AM PDT 10:46 PM PDT
Moon 5:41 PM PDT (7/19) 2:15 AM PDT (7/19)
Length of Visible Light 16h 14m
Length of Day
15h 04m
Waxing Gibbous, 87% of the Moon is Illuminated
Jul 19
Waxing Gibbous
Jul 22
Full
Jul 29
Last Quarter
Aug 6
New
Aug 14
First Quarter

Hourly Weather History & Observations

Time (PDT) Temp. Dew Point Humidity Pressure Visibility Wind Dir Wind Speed Gust Speed Precip Events Conditions
12:15 AM 70.3 °F 32.2 °F 24% 30.14 in 10.0 mi WSW 4.6 mph - N/A   Clear
12:35 AM 71.4 °F 32.2 °F 24% 30.14 in 10.0 mi Calm Calm - N/A   Clear
12:55 AM 71.2 °F 32.0 °F 24% 30.14 in 10.0 mi East 4.6 mph - N/A   Clear
1:15 AM 65.8 °F 35.4 °F 32% 30.14 in 10.0 mi East 4.6 mph - N/A   Clear
1:35 AM 64.9 °F 37.2 °F 36% 30.14 in 10.0 mi East 8.1 mph - N/A   Clear
1:55 AM 64.6 °F 37.8 °F 37% 30.14 in 10.0 mi East 8.1 mph - N/A   Clear
2:15 AM 64.9 °F 37.8 °F 37% 30.14 in 10.0 mi East 8.1 mph - N/A   Clear
2:35 AM 65.3 °F 37.9 °F 36% 30.14 in 10.0 mi East 9.2 mph - N/A   Clear
2:55 AM 64.0 °F 37.8 °F 38% 30.14 in 10.0 mi East 8.1 mph - N/A   Clear
3:15 AM 64.2 °F 37.8 °F 38% 30.14 in 10.0 mi East 10.4 mph - N/A   Clear
3:35 AM 64.4 °F 37.4 °F 37% 30.14 in 10.0 mi East 8.1 mph - N/A   Clear
3:55 AM 63.5 °F 36.5 °F 37% 30.14 in 10.0 mi East 8.1 mph - N/A   Clear
4:15 AM 62.6 °F 37.4 °F 39% 30.14 in 10.0 mi East 8.1 mph - N/A   Clear
4:35 AM 61.2 °F 36.7 °F 40% 30.15 in 10.0 mi East 8.1 mph - N/A   Clear
4:55 AM 59.5 °F 37.0 °F 43% 30.15 in 10.0 mi East 8.1 mph - N/A   Clear
5:15 AM 59.2 °F 36.1 °F 42% 30.15 in 10.0 mi ESE 6.9 mph - N/A   Clear
5:35 AM 60.6 °F 35.4 °F 39% 30.15 in 10.0 mi ESE 6.9 mph - N/A   Clear
5:55 AM 60.8 °F 35.4 °F 39% 30.15 in 10.0 mi ESE 8.1 mph - N/A   Clear
6:15 AM 61.5 °F 35.2 °F 37% 30.16 in 10.0 mi East 8.1 mph - N/A   Clear
6:35 AM 62.4 °F 35.1 °F 36% 30.16 in 10.0 mi East 6.9 mph - N/A   Clear
6:55 AM 63.0 °F 35.1 °F 35% 30.16 in 10.0 mi ESE 6.9 mph - N/A   Clear
7:15 AM 64.2 °F 36.0 °F 35% 30.16 in 10.0 mi ESE 6.9 mph - N/A   Clear
7:35 AM 65.5 °F 36.1 °F 34% 30.16 in 10.0 mi ESE 5.8 mph - N/A   Clear
7:55 AM 67.1 °F 36.7 °F 33% 30.16 in 10.0 mi ESE 4.6 mph - N/A   Clear
8:15 AM 68.4 °F 37.6 °F 32% 30.16 in 10.0 mi ESE 3.5 mph - N/A   Clear
8:35 AM 70.7 °F 37.2 °F 29% 30.16 in 10.0 mi Calm Calm - N/A   Clear
8:55 AM 73.4 °F 33.1 °F 23% 30.15 in 10.0 mi Calm Calm - N/A   Clear
9:15 AM 74.8 °F 32.7 °F 21% 30.14 in 10.0 mi Calm Calm - N/A   Clear
9:35 AM 76.3 °F 36.9 °F 24% 30.14 in 10.0 mi West 3.5 mph - N/A   Clear
9:55 AM 77.7 °F 34.3 °F 21% 30.14 in 10.0 mi SW 3.5 mph - N/A   Clear
10:15 AM 79.0 °F 33.1 °F 19% 30.13 in 10.0 mi SW 3.5 mph - N/A   Clear
10:35 AM 81.0 °F 33.4 °F 18% 30.13 in 10.0 mi NW 6.9 mph - N/A   Clear
10:55 AM 82.6 °F 31.8 °F 16% 30.13 in 10.0 mi West 5.8 mph - N/A   Clear
11:15 AM 83.8 °F 30.2 °F 14% 30.12 in 10.0 mi West 5.8 mph - N/A   Clear
11:35 AM 85.3 °F 30.7 °F 14% 30.12 in 10.0 mi West 4.6 mph - N/A   Clear
11:55 AM 87.1 °F 32.2 °F 14% 30.11 in 10.0 mi NW 8.1 mph - N/A   Clear
12:15 PM 88.2 °F 32.5 °F 14% 30.10 in 10.0 mi West 8.1 mph - N/A   Clear
12:35 PM 88.9 °F 32.7 °F 13% 30.10 in 10.0 mi West 6.9 mph - N/A   Clear
12:55 PM 90.7 °F 33.6 °F 13% 30.09 in 10.0 mi NW 3.5 mph - N/A   Clear
1:15 PM 91.9 °F 32.5 °F 12% 30.08 in 10.0 mi WNW 6.9 mph - N/A   Clear
1:35 PM 91.6 °F 30.7 °F 11% 30.07 in 10.0 mi West 5.8 mph - N/A   Clear
1:55 PM 93.6 °F 32.7 °F 12% 30.07 in 10.0 mi WNW 9.2 mph - N/A   Clear
2:15 PM 93.9 °F 32.0 °F 11% 30.06 in 10.0 mi West 6.9 mph - N/A   Clear
2:35 PM 94.1 °F 31.1 °F 11% 30.05 in 10.0 mi NNW 5.8 mph - N/A   Clear
2:55 PM 96.1 °F 31.5 °F 10% 30.04 in 10.0 mi NW 5.8 mph - N/A   Clear
3:15 PM 96.1 °F 31.8 °F 10% 30.04 in 10.0 mi NW 10.4 mph 19.6 mph N/A   Clear
3:35 PM 96.4 °F 31.6 °F 10% 30.03 in 10.0 mi West 9.2 mph 16.1 mph N/A   Clear
3:55 PM 97.0 °F 31.1 °F 10% 30.03 in 10.0 mi NNW 12.7 mph 18.4 mph N/A   Clear
4:15 PM 96.3 °F 30.4 °F 10% 30.03 in 10.0 mi WNW 12.7 mph 18.4 mph N/A   Clear
4:35 PM 95.9 °F 30.4 °F 10% 30.02 in 10.0 mi NW 8.1 mph 17.3 mph N/A   Clear
4:55 PM 96.8 °F 31.3 °F 10% 30.01 in 10.0 mi NW 5.8 mph 17.3 mph N/A   Clear
5:15 PM 96.3 °F 31.6 °F 10% 30.01 in 10.0 mi NNW 10.4 mph 21.9 mph N/A   Clear
5:35 PM 95.7 °F 31.8 °F 10% 30.01 in 10.0 mi NW 10.4 mph 17.3 mph N/A   Clear
5:55 PM 95.2 °F 32.2 °F 11% 30.00 in 10.0 mi NW 12.7 mph 17.3 mph N/A   Clear
6:15 PM 94.3 °F 32.5 °F 11% 30.01 in 10.0 mi NNW 13.8 mph 20.7 mph N/A   Clear
6:35 PM 93.4 °F 33.1 °F 12% 30.01 in 10.0 mi NNW 15.0 mph - N/A   Clear
6:55 PM 92.1 °F 33.8 °F 13% 30.01 in 10.0 mi NNW 11.5 mph 18.4 mph N/A   Clear
7:15 PM 90.1 °F 33.4 °F 13% 30.01 in 10.0 mi North 10.4 mph - N/A   Clear
7:35 PM 88.9 °F 33.8 °F 14% 30.02 in 10.0 mi North 9.2 mph - N/A   Clear
7:55 PM 87.1 °F 34.0 °F 15% 30.02 in 10.0 mi North 9.2 mph - N/A   Clear
8:15 PM 84.9 °F 33.8 °F 16% 30.03 in 10.0 mi North 10.4 mph 16.1 mph N/A   Clear
8:35 PM 82.9 °F 34.0 °F 17% 30.03 in 10.0 mi Calm Calm - N/A   Clear
8:55 PM 83.3 °F 34.0 °F 17% 30.04 in 10.0 mi Calm Calm - N/A   Clear
9:15 PM 81.9 °F 34.7 °F 18% 30.05 in 10.0 mi SSE 3.5 mph - N/A   Clear
9:35 PM 81.3 °F 35.4 °F 19% 30.07 in 10.0 mi Calm Calm - N/A   Clear
9:55 PM 79.5 °F 36.7 °F 21% 30.07 in 10.0 mi NNW 4.6 mph - N/A   Clear
10:15 PM 76.8 °F 37.0 °F 24% 30.07 in 10.0 mi NW 4.6 mph - N/A   Clear
10:35 PM 77.4 °F 36.9 °F 23% 30.07 in 10.0 mi NNW 5.8 mph - N/A   Clear
10:55 PM 75.6 °F 36.5 °F 24% 30.08 in 10.0 mi NW 4.6 mph - N/A   Clear
11:15 PM 74.1 °F 36.0 °F 25% 30.08 in 10.0 mi NW 5.8 mph - N/A   Clear
11:35 PM 74.3 °F 35.6 °F 24% 30.08 in 10.0 mi North 5.8 mph - N/A   Clear
11:55 PM 73.4 °F 35.4 °F 25% 30.08 in 10.0 mi NNW 5.8 mph - N/A   Clear